Weather History for Prerov, Czech Republic

Change the Weather History Date:

Saturday, March 2, 2013

  Actual Average Record
Temperature  
Mean Temperature 34 °F -  
Max Temperature 42 °F - - ()
Min Temperature 26 °F - - ()
Degree Days  
Heating Degree Days 31    
Moisture  
Dew Point 26 °F    
Average Humidity 74    
Maximum Humidity 93    
Minimum Humidity 49    
Precipitation  
Precipitation 0.00 in - - ()
Sea Level Pressure  
Sea Level Pressure 30.14 in    
Wind  
Wind Speed 5 mph ()    
Max Wind Speed 9 mph    
Max Gust Speed -    
Visibility 6.2 miles    
Events      
T = Trace of Precipitation, MM = Missing Value Source: Averaged Metar Reports

Daily Weather History Graph

Daily Weather History Graph

Search for Another Location

Airport:

Trip Planner

Search our weather history database for the weather conditions in past years. The results will help you decide how hot, cold, wet, or windy it might be!

Date:

Astronomy

Mar. 02, 2013 Rise Set
Actual Time 6:30 AM CET 5:34 PM CET
Civil Twilight 5:58 AM CET 6:06 PM CET
Nautical Twilight 5:22 AM CET 6:43 PM CET
Astronomical Twilight 4:44 AM CET 7:21 PM CET
Moon 11:28 PM CET (3/2) 8:15 AM CET (3/2)
Length of Visible Light 12h 07m
Length of Day
11h 03m
Waning Gibbous, 76% of the Moon is Illuminated
Mar 2
Waning Gibbous
Mar 4
Last Quarter
Mar 11
New
Mar 19
First Quarter
Mar 27
Full

Hourly Weather History & Observations

Time (CET) Temp. Windchill Dew Point Humidity Pressure Visibility Wind Dir Wind Speed Gust Speed Precip Events Conditions
12:00 AM 32.0 °F 24.8 °F 26.6 °F 80% 30.12 in - NNW 8.1 mph - N/A   Clear
2:00 AM 30.2 °F 21.9 °F 26.6 °F 86% 30.12 in - NNW 9.2 mph - N/A   Clear
3:00 AM 30.2 °F 23.4 °F 26.6 °F 86% 30.12 in - NNW 6.9 mph - N/A   Clear
4:00 AM 30.2 °F 22.6 °F 26.6 °F 86% 30.15 in - NNW 8.1 mph - N/A   Clear
5:00 AM 30.2 °F 23.4 °F 26.6 °F 86% 30.15 in - NNW 6.9 mph - N/A   Clear
6:00 AM 26.6 °F - 24.8 °F 93% 30.15 in - Variable 2.3 mph - N/A   Clear
7:00 AM 28.4 °F - 24.8 °F 86% 30.18 in - Variable 2.3 mph - N/A   Clear
9:00 AM 33.8 °F 29.6 °F 28.4 °F 81% 30.18 in - WNW 4.6 mph - N/A   Clear
10:00 AM 35.6 °F 29.2 °F 28.4 °F 75% 30.18 in - NNW 8.1 mph - N/A   Clear
11:00 AM 37.4 °F 31.4 °F 26.6 °F 65% 30.18 in 6.2 mi NW 8.1 mph - N/A   Partly Cloudy
12:00 PM 39.2 °F 33.6 °F 26.6 °F 61% 30.18 in 6.2 mi WNW 8.1 mph - N/A   Partly Cloudy
1:00 PM 41.0 °F 35.8 °F 24.8 °F 53% 30.18 in 6.2 mi NW 8.1 mph - N/A   Scattered Clouds
2:00 PM 41.0 °F 35.8 °F 24.8 °F 53% 30.15 in 6.2 mi NW 8.1 mph - N/A   Scattered Clouds
3:00 PM 41.0 °F 37.1 °F 24.8 °F 53% 30.15 in 6.2 mi NNW 5.8 mph - N/A   Scattered Clouds
4:00 PM 42.8 °F 38.6 °F 24.8 °F 49% 30.12 in 6.2 mi WNW 6.9 mph - N/A   Partly Cloudy
5:00 PM 39.2 °F 35.0 °F 24.8 °F 56% 30.12 in - NNW 5.8 mph - N/A   Clear
6:00 PM 33.8 °F 30.8 °F 24.8 °F 70% 30.12 in - NNW 3.5 mph - N/A   Clear
7:00 PM 33.8 °F - 24.8 °F 70% 30.12 in - WNW 2.3 mph - N/A   Clear
8:00 PM 30.2 °F 26.7 °F 24.8 °F 80% 30.12 in - SSW 3.5 mph - N/A   Clear
9:00 PM 26.6 °F - 23.0 °F 86% 30.12 in - Calm Calm - N/A   Clear
10:00 PM 28.4 °F 24.6 °F 24.8 °F 86% 30.12 in - SSW 3.5 mph - N/A   Clear
11:00 PM 26.6 °F - 23.0 °F 86% 30.12 in - South 1.2 mph - N/A   Clear